Temperature
15 15 15 15 15 15 15 15 15 15 15 15 15 15 15 15 15 15 15 15 15 15 15 15 15 15 15 15 15 15 15 15 15 15 15 15 15 15 15 15 15 15 15
15 15 15 15 15 15 15 15 15 15 15 15 15 15 15 15 15 14 14 15 15 15 15 15 15 15 15 15 15 15 15 15 15 15 15 15 15 15 15 15 15 15 15
15 15 15 15 15 15 15 15 15 15 15 14 14 14 14 14 14 14 14 14 14 15 15 15 14 14 15 15 15 15 15 15 15 14 14 15 15 15 14 14 14 15 15
15 15 15 15 15 15 15 15 14 14 14 14 14 14 14 14 14 14 14 14 14 14 14 14 14 14 14 14 14 14 14 14 14 14 14 14 14 14 14 14 14 14 14
15 15 15 15 15 14 14 14 14 14 14 14 14 14 14 14 14 14 14 14 14 14 14 14 14 14 14 14 14 14 14 14 14 14 14 14 14 14 14 14 14 14 14
14 14 15 14 14 14 14 14 14 14 14 14 14 14 14 14 14 14 14 14 14 14 14 14 14 14 14 14 14 14 14 14 14 14 14 14 14 14 13 13 13 13 13
14 14 14 14 14 14 14 14 14 14 14 14 14 14 14 14 14 14 14 14 14 14 14 14 14 14 14 14 14 14 14 14 13 13 13 13 13 13 13 13 13 13 13
14 14 14 14 14 14 14 14 14 14 14 14 14 14 14 14 14 14 14 13 13 13 13 13 13 13 13 13 13 13 13 13 13 13 13 13 13 13 13 13 13 13 13
14 14 14 14 14 14 14 14 14 14 14 14 14 14 15 15 14 14 14 13 13 13 13 13 13 13 13 13 13 13 13 13 13 13 13 13 12 12 12 12 12 12 12
14 14 14 14 14 14 14 14 14 14 14 14 14 14 14 14 14 14 14 13 13 13 13 13 13 13 13 13 13 13 13 13 13 13 13 12 12 12 12 12 12 12 12
14 14 14 14 14 14 14 14 14 14 14 14 14 14 14 14 14 14 14 13 13 13 13 13 13 12 13 12 13 13 13 13 13 13 12 12 12 12 12 12 12 11 11
14 14 14 14 14 14 14 14 14 14 14 14 14 14 14 14 14 14 14 14 13 13 13 13 13 12 12 12 12 13 13 13 12 12 12 12 12 12 12 12 11 11 11
15 14 15 14 14 14 14 14 14 14 14 14 14 14 14 14 13 14 14 14 13 13 13 12 12 12 12 12 12 12 12 12 12 12 12 12 12 12 11 11 11 11 11
15 15 14 14 14 14 14 14 14 14 14 14 14 14 14 13 13 13 13 13 14 13 13 12 12 12 12 12 12 12 12 12 12 12 12 12 11 11 11 11 11 11 11
15 14 14 14 14 14 14 14 14 14 14 14 14 14 13 13 13 13 13 13 13 14 13 12 12 12 12 12 12 12 12 12 12 12 11 11 11 11 11 11 10 10 10
14 14 14 14 14 14 14 14 14 14 14 14 14 14 14 13 13 13 13 13 13 13 13 12 12 12 12 12 12 12 12 12 12 11 11 11 11 11 11 11 10 10 10
14 14 14 14 14 14 14 14 14 14 14 14 14 14 14 13 13 13 13 13 13 13 13 12 12 12 12 11 12 11 11 11 11 11 11 11 11 11 11 10 10 10 9
14 14 14 14 14 14 14 14 14 14 14 14 14 13 13 13 13 13 13 12 12 12 12 12 12 12 11 11 11 11 11 11 10 11 11 11 11 10 10 10 10 10 9
14 14 14 14 14 14 14 14 14 14 14 14 13 13 13 13 13 13 13 12 12 12 12 12 12 11 11 11 11 11 11 10 10 10 10 10 10 10 10 10 9 9 9
14 14 14 14 14 14 14 14 14 14 13 13 13 13 13 13 13 12 13 12 12 12 12 12 11 11 11 11 11 11 10 10 10 10 10 10 10 10 9 9 9 9 9
14 14 14 14 14 14 14 14 13 13 13 13 13 13 13 13 13 12 12 12 12 12 12 11 11 11 11 10 10 10 10 10 10 10 9 9 9 9 9 9 9 8 8
14 14 14 14 14 14 14 14 13 13 13 13 13 13 13 12 13 12 12 12 12 12 11 11 11 11 11 10 10 10 10 9 9 9 9 9 9 8 8 8 8 8 8
14 14 14 13 13 13 13 13 13 13 13 13 13 12 12 12 12 12 12 12 12 12 11 11 11 11 10 10 10 10 9 9 9 9 9 8 8 8 8 8 8 8 8
14 14 13 13 13 13 13 13 13 13 12 12 12 12 12 12 12 12 11 11 11 11 11 11 10 10 10 10 10 9 9 9 8 8 8 8 8 8 8 7 8 8 7
14 14 13 13 13 13 13 13 13 12 12 12 12 12 12 12 12 11 11 11 11 11 11 10 10 10 10 10 10 9 9 8 8 8 8 7 7 7 7 7 7 7 7
13 13 13 13 13 12 13 12 12 12 12 12 12 12 12 11 11 11 11 11 10 10 10 10 10 10 9 9 9 9 8 8 8 7 7 7 7 6 6 6 6 6 6
Wind_Speed
4 4 5 5 5 5 5 5 6 7 7 8 8 8 8 8 9 9 10 13 13 12 12 12 12 11 11 11 11 10 11 11 11 11 11 11 11 11 11 10 10 10 10
4 4 5 5 5 5 5 5 7 6 6 7 7 8 8 8 8 8 9 11 13 13 13 13 13 12 11 11 11 11 11 12 12 12 12 11 11 11 11 11 11 10 10
4 4 4 5 5 5 5 6 7 6 6 6 7 7 7 7 7 8 8 7 9 12 12 12 12 12 12 11 11 11 11 12 12 12 12 12 11 11 11 11 11 10 10
4 4 4 4 5 5 5 5 5 5 6 6 6 6 6 6 7 7 7 7 7 7 10 12 12 12 12 12 12 11 11 11 11 11 12 12 12 11 11 11 11 11 10
4 5 4 4 5 5 4 5 5 5 6 5 5 5 5 5 5 6 7 7 7 6 7 9 10 11 11 12 11 11 11 11 10 11 11 11 11 11 11 11 11 10 10
4 5 4 5 5 4 4 4 6 5 5 4 5 5 4 4 4 5 5 6 6 7 7 7 7 9 11 11 11 11 11 10 10 10 10 11 11 11 11 11 11 11 11
4 4 3 4 4 4 4 5 5 6 5 4 4 4 4 4 4 3 4 4 6 6 7 7 7 6 7 9 10 10 10 10 9 10 10 10 11 11 11 11 10 10 10
4 3 4 4 4 4 4 4 3 3 3 1 1 1 2 3 3 3 3 3 4 5 5 6 7 6 6 6 9 10 10 9 9 9 9 9 10 10 10 10 10 10 10
3 4 4 4 4 3 3 3 2 2 2 2 1 1 0 1 2 2 3 3 3 3 4 4 6 6 6 6 6 9 9 9 8 7 8 8 8 9 9 9 9 9 9
3 3 3 3 3 2 2 2 2 1 1 1 1 1 1 1 0 1 2 3 3 3 3 3 4 5 5 6 7 9 9 9 8 7 7 7 7 7 7 8 8 9 9
3 3 3 3 3 2 2 1 1 1 1 1 0 0 1 1 1 1 1 1 2 2 2 3 3 4 4 5 5 8 8 8 8 8 7 7 7 7 7 7 8 8 9
2 3 2 3 2 2 1 1 1 1 0 0 0 0 0 0 0 0 0 0 1 2 2 3 2 3 3 4 6 8 7 8 8 8 8 7 7 7 6 6 7 7 8
2 2 2 2 2 2 2 1 1 1 1 1 0 0 0 0 0 0 0 1 1 1 2 2 2 2 2 3 5 5 7 7 7 7 7 7 6 6 6 6 6 6 7
2 2 2 2 2 2 2 2 1 1 1 1 1 1 0 0 0 0 0 0 1 1 2 2 2 3 2 3 4 2 5 6 6 6 6 7 7 6 6 6 6 6 6
2 3 3 2 2 2 1 2 1 1 1 1 1 1 1 1 1 0 0 1 1 0 1 2 2 2 2 3 3 2 4 7 6 5 6 6 6 6 6 6 5 5 5
3 3 3 3 2 2 2 1 1 1 2 2 1 1 1 1 1 1 1 0 1 1 1 2 1 2 3 2 3 3 4 6 5 4 4 4 4 4 5 5 5 5 5
3 3 2 2 2 2 2 2 2 2 2 2 2 2 2 2 2 1 1 1 1 1 1 2 2 2 2 2 2 2 2 2 4 5 4 3 4 4 4 4 5 5 5
3 3 3 2 2 2 2 3 3 2 2 2 2 2 3 3 2 1 1 1 1 1 1 2 2 1 1 1 1 1 1 1 2 4 3 3 3 3 3 3 4 4 4
4 3 3 3 3 3 3 3 3 2 2 2 2 2 2 3 3 2 1 1 1 1 1 1 2 1 1 0 0 1 1 1 0 1 2 1 1 1 2 2 3 3 3
4 4 4 3 3 3 3 3 3 3 2 2 2 2 2 2 2 2 2 1 1 1 1 1 1 1 1 0 1 1 1 1 1 1 1 1 1 2 2 1 1 1 2
4 4 4 4 3 3 3 3 3 3 3 2 2 2 2 2 3 1 0 1 2 2 2 1 1 1 1 1 1 2 2 2 2 1 2 2 2 2 2 3 2 2 2
4 4 4 4 4 3 3 2 3 3 3 3 3 3 3 3 3 3 1 1 0 2 2 2 2 2 2 2 2 2 2 2 3 1 3 3 2 2 2 2 1 1 3
4 5 5 4 4 4 6 5 4 3 3 3 3 3 3 2 3 3 4 5 3 2 2 3 3 3 3 2 3 3 3 4 4 2 3 3 2 3 3 1 1 2 3
4 4 4 5 4 4 6 5 5 5 4 3 3 3 3 3 2 2 2 3 2 2 3 4 3 3 2 2 3 4 4 4 3 2 2 4 3 3 3 3 2 3 4
4 4 4 4 5 5 6 5 5 4 4 4 3 3 3 3 3 2 3 3 3 2 2 1 2 2 2 1 2 2 2 3 4 3 2 3 4 4 4 3 3 4 5
4 3 3 3 4 4 6 6 6 4 4 4 3 3 2 2 3 3 4 4 4 3 2 2 2 2 3 3 4 4 3 4 4 3 2 3 3 3 3 3 2 3 4
Wind_Direction
78 79 81 78 76 84 88 81 83 81 77 73 72 73 71 70 72 73 75 69 66 67 69 70 69 69 72 71 70 70 69 70 70 69 69 69 68 65 64 65 63 57 52
78 83 81 78 78 81 83 86 86 85 78 77 76 74 70 71 71 76 77 77 69 65 66 68 66 67 71 72 71 71 70 69 69 69 69 67 66 63 61 61 59 54 50
84 88 82 83 88 94 94 88 86 86 87 88 82 76 71 67 69 69 70 70 75 72 65 63 63 64 67 71 72 70 70 69 68 67 67 66 65 64 61 59 59 55 50
80 86 85 87 90 96 94 90 88 92 92 88 84 77 74 72 71 69 71 72 69 71 74 63 59 60 61 65 67 68 69 68 67 68 67 66 65 64 62 59 58 54 51
86 97 91 91 97 95 93 93 89 91 94 93 92 82 72 69 68 68 68 67 70 69 72 74 68 62 61 61 62 64 67 68 68 70 69 66 65 63 62 58 56 53 51
87 102 105 99 98 96 96 100 99 92 91 97 94 85 79 78 72 62 63 65 62 64 65 66 72 74 66 59 57 60 62 65 67 70 69 67 64 62 59 57 55 54 52
92 100 107 102 103 104 104 105 105 106 103 107 109 100 92 83 72 70 64 67 70 65 67 67 64 64 74 72 58 57 59 62 67 69 70 66 64 61 56 52 51 53 52
99 107 114 119 120 114 116 109 111 114 115 130 106 122 124 119 80 69 73 71 72 73 60 60 66 65 60 66 66 57 50 61 72 72 70 65 63 59 53 49 49 51 51
101 108 122 129 128 126 122 121 134 146 140 133 5 331 350 69 98 97 72 78 74 69 65 59 61 62 65 64 66 62 50 57 71 72 69 64 62 58 52 49 50 49 50
107 114 130 142 142 139 138 135 142 175 190 158 128 11 360 26 323 120 110 81 76 70 65 66 62 60 62 66 64 59 54 55 61 65 67 64 61 58 53 50 50 50 49
111 118 127 139 141 149 156 145 168 210 225 251 291 117 92 90 294 309 97 87 96 86 70 64 65 61 62 67 66 64 58 56 55 54 60 59 56 55 51 48 49 49 48
122 124 132 140 138 140 147 153 160 175 214 308 299 293 225 290 359 17 186 128 89 84 81 77 71 72 68 72 70 67 66 61 58 56 56 53 49 45 44 49 48 45 46
136 135 147 148 138 132 135 146 153 157 145 142 108 350 343 336 301 251 170 110 109 116 95 89 81 80 76 75 78 80 81 67 63 60 57 54 48 41 42 46 42 42 43
140 135 144 142 135 143 147 145 159 147 140 134 117 111 128 82 299 280 188 154 165 139 108 79 85 77 74 74 70 84 86 81 68 62 59 56 50 44 41 38 34 36 39
155 154 152 148 141 143 156 165 160 144 135 135 118 120 115 105 107 100 173 253 284 241 106 93 88 82 78 70 58 72 79 86 79 69 65 58 49 43 39 35 31 36 38
168 178 172 168 158 151 159 160 165 152 162 129 107 111 109 107 103 117 153 242 322 314 85 93 94 99 87 83 66 59 74 95 86 79 68 59 50 43 37 30 30 35 31
175 182 186 181 170 171 171 165 174 164 166 145 132 127 124 106 113 117 130 129 52 39 119 104 110 105 109 94 91 67 84 92 91 97 77 58 50 45 37 39 44 41 33
180 181 175 173 166 178 181 168 164 167 161 149 139 136 134 127 123 113 123 126 95 32 137 138 140 127 112 74 56 40 53 54 71 96 92 67 51 46 39 42 43 38 29
185 184 184 184 177 178 178 174 172 167 154 148 149 142 133 135 135 123 138 135 125 112 107 161 139 119 142 78 36 9 339 17 7 106 140 140 99 44 45 43 38 31 26
191 191 189 189 189 188 188 187 175 173 167 155 148 140 139 147 146 148 155 152 144 140 139 152 155 163 164 201 268 304 306 293 286 305 303 232 188 201 207 198 6 7 9
197 195 195 195 194 196 193 191 185 184 177 171 159 154 131 100 60 61 101 166 164 171 174 182 194 208 208 217 256 272 285 290 278 294 290 270 246 245 220 210 225 257 289
199 195 200 200 196 188 132 163 219 185 183 184 182 172 155 159 148 151 119 59 21 209 210 211 230 242 251 246 258 262 270 279 288 297 289 286 277 283 273 273 129 221 254
193 197 200 199 198 168 147 170 211 210 195 193 194 182 171 174 194 190 172 179 189 230 271 264 263 269 266 261 256 263 270 280 287 300 287 283 280 280 279 285 145 237 267
190 196 198 201 198 173 157 174 195 213 205 197 202 202 192 193 186 211 201 201 207 204 224 242 266 282 294 286 265 269 277 277 269 262 277 282 286 289 285 267 206 238 259
190 194 195 197 196 181 162 180 200 203 208 205 203 206 207 207 125 183 224 225 223 216 155 210 347 2 29 2 292 256 256 256 270 266 256 278 291 293 283 270 243 229 249
191 191 190 197 195 194 157 177 211 207 210 210 207 197 168 218 139 189 224 230 234 233 222 203 206 213 223 210 224 240 250 263 277 276 270 275 285 294 282 273 276 261 253
Height
1546 1545 1545 1544 1545 1545 1545 1545 1545 1545 1545 1545 1545 1545 1545 1545 1546 1545 1545 1545 1545 1545 1544 1544 1544 1543 1543 1543 1543 1542 1542 1541 1541 1540 1540 1539 1539 1538 1537 1537 1536 1536 1535
1547 1546 1546 1546 1546 1546 1546 1547 1546 1546 1546 1546 1546 1546 1546 1547 1547 1547 1547 1546 1546 1546 1546 1546 1545 1545 1544 1544 1544 1544 1543 1543 1542 1542 1541 1540 1539 1539 1538 1537 1537 1536 1535
1548 1548 1547 1547 1547 1547 1548 1548 1548 1548 1547 1548 1548 1548 1548 1548 1548 1548 1548 1548 1548 1548 1547 1547 1547 1547 1546 1546 1545 1545 1544 1544 1543 1543 1542 1541 1540 1540 1539 1538 1537 1536 1535
1549 1549 1548 1548 1548 1549 1549 1549 1549 1549 1549 1549 1549 1549 1549 1549 1550 1550 1550 1550 1550 1549 1549 1548 1548 1548 1548 1547 1547 1546 1545 1545 1544 1544 1543 1542 1541 1540 1540 1538 1537 1537 1536
1550 1550 1549 1550 1550 1550 1550 1550 1550 1550 1550 1550 1551 1551 1551 1551 1551 1551 1551 1551 1551 1551 1550 1550 1549 1549 1549 1548 1548 1547 1547 1546 1545 1544 1544 1543 1542 1541 1540 1539 1538 1537 1536
1551 1551 1551 1551 1551 1551 1551 1551 1551 1551 1551 1552 1552 1552 1552 1553 1553 1553 1553 1552 1552 1552 1551 1551 1551 1550 1550 1549 1549 1548 1548 1547 1546 1545 1545 1544 1543 1542 1541 1540 1539 1538 1537
1551 1551 1552 1552 1552 1552 1552 1553 1553 1553 1553 1553 1554 1554 1554 1554 1554 1554 1554 1554 1553 1553 1552 1552 1552 1551 1551 1550 1550 1549 1548 1547 1547 1546 1545 1545 1544 1543 1542 1541 1540 1538 1537
1552 1552 1553 1553 1553 1553 1553 1554 1554 1554 1554 1554 1555 1556 1556 1557 1555 1555 1555 1554 1554 1554 1553 1553 1553 1552 1552 1551 1550 1550 1549 1548 1547 1547 1546 1545 1545 1544 1543 1541 1540 1539 1538
1553 1553 1554 1554 1554 1554 1555 1554 1555 1555 1556 1556 1556 1557 1556 1556 1557 1557 1556 1555 1555 1554 1554 1554 1554 1553 1553 1552 1551 1550 1549 1548 1548 1547 1547 1546 1545 1544 1543 1542 1541 1539 1538
1554 1554 1554 1555 1555 1555 1555 1556 1556 1556 1556 1556 1556 1556 1557 1556 1556 1557 1557 1556 1555 1555 1554 1554 1554 1553 1553 1552 1551 1551 1550 1549 1548 1548 1547 1546 1545 1544 1543 1542 1541 1540 1539
1555 1555 1555 1555 1556 1556 1556 1556 1556 1556 1556 1557 1557 1556 1556 1556 1556 1556 1556 1557 1556 1555 1554 1554 1554 1553 1553 1552 1551 1551 1550 1550 1549 1548 1548 1547 1546 1545 1544 1542 1541 1540 1539
1555 1555 1556 1556 1556 1556 1556 1556 1556 1556 1556 1556 1556 1556 1556 1556 1556 1556 1556 1556 1556 1555 1554 1554 1554 1553 1553 1552 1552 1551 1551 1550 1549 1549 1548 1547 1546 1545 1544 1542 1541 1540 1539
1556 1556 1556 1556 1556 1556 1556 1556 1556 1556 1556 1556 1556 1556 1556 1556 1555 1555 1556 1555 1555 1556 1555 1555 1554 1553 1553 1553 1552 1552 1551 1550 1549 1549 1548 1547 1546 1545 1544 1542 1541 1540 1538
1555 1555 1556 1556 1556 1556 1556 1556 1556 1556 1556 1556 1556 1555 1555 1555 1555 1555 1555 1555 1555 1556 1555 1555 1554 1554 1553 1553 1552 1552 1551 1550 1550 1549 1548 1547 1545 1544 1543 1542 1540 1539 1538
1555 1555 1556 1556 1556 1556 1556 1556 1556 1556 1556 1556 1556 1555 1555 1555 1554 1554 1554 1555 1556 1555 1555 1555 1554 1554 1553 1553 1552 1552 1551 1550 1549 1548 1547 1546 1545 1544 1542 1541 1540 1538 1537
1554 1555 1555 1555 1555 1555 1555 1555 1555 1555 1555 1555 1555 1555 1554 1554 1554 1554 1554 1554 1554 1555 1555 1555 1554 1554 1553 1553 1552 1551 1551 1549 1549 1548 1547 1545 1544 1543 1541 1540 1539 1537 1536
1554 1554 1555 1555 1555 1555 1555 1554 1555 1555 1555 1555 1554 1554 1554 1554 1554 1554 1554 1554 1554 1554 1554 1554 1554 1553 1553 1552 1552 1551 1550 1549 1549 1547 1546 1545 1543 1542 1540 1539 1538 1536 1535
1553 1553 1554 1554 1554 1554 1554 1554 1554 1554 1554 1554 1554 1554 1554 1554 1554 1554 1554 1554 1554 1554 1554 1554 1554 1553 1553 1552 1551 1550 1550 1549 1548 1546 1545 1544 1542 1541 1540 1538 1537 1535 1534
1551 1552 1552 1553 1553 1553 1553 1553 1553 1554 1554 1553 1553 1553 1553 1554 1553 1553 1553 1553 1553 1553 1553 1553 1553 1552 1552 1551 1550 1550 1549 1548 1547 1546 1544 1543 1541 1540 1538 1537 1535 1534 1532
1550 1550 1551 1551 1552 1552 1552 1552 1552 1552 1553 1553 1553 1553 1553 1553 1553 1553 1553 1553 1553 1552 1552 1552 1552 1551 1551 1550 1549 1549 1548 1547 1546 1545 1543 1542 1540 1539 1537 1535 1534 1532 1531
1548 1549 1549 1550 1550 1550 1551 1551 1551 1551 1551 1552 1552 1552 1552 1552 1552 1552 1552 1552 1552 1552 1551 1551 1551 1550 1550 1549 1548 1547 1547 1546 1545 1543 1542 1540 1539 1537 1536 1533 1532 1531 1529
1546 1546 1547 1548 1548 1548 1548 1549 1549 1550 1550 1550 1550 1551 1550 1550 1550 1550 1550 1550 1550 1550 1550 1550 1550 1549 1549 1548 1547 1546 1545 1545 1544 1542 1540 1539 1537 1536 1534 1532 1530 1529 1527
1543 1544 1545 1545 1546 1546 1547 1547 1547 1548 1549 1549 1549 1549 1549 1549 1549 1549 1549 1549 1548 1548 1548 1548 1548 1548 1547 1546 1545 1544 1543 1543 1542 1540 1538 1537 1535 1534 1532 1530 1528 1526 1525
1541 1542 1542 1543 1544 1544 1544 1545 1546 1546 1547 1547 1547 1547 1547 1547 1547 1547 1548 1547 1547 1546 1546 1546 1546 1545 1544 1544 1543 1542 1541 1540 1539 1537 1536 1534 1533 1531 1529 1527 1525 1523 1522
1538 1539 1540 1541 1541 1542 1542 1543 1544 1544 1545 1545 1545 1545 1545 1546 1545 1545 1545 1545 1545 1544 1544 1543 1542 1542 1541 1540 1539 1539 1538 1537 1536 1535 1533 1532 1530 1528 1526 1525 1522 1520 1519
1536 1536 1537 1538 1539 1539 1540 1540 1541 1542 1542 1543 1543 1543 1543 1543 1543 1543 1543 1543 1542 1542 1541 1541 1540 1539 1538 1537 1536 1536 1535 1534 1533 1533 1530 1529 1527 1526 1523 1522 1520 1518 1516